Weather History for Litchfield, MN

Change the Weather History Date:

Sunday, May 4, 2014

  Actual Average Record
Temperature  
Mean Temperature 45 °F -  
Max Temperature 57 °F 69 °F 93 °F (1952)
Min Temperature 33 °F 43 °F 22 °F (1967)
Degree Days  
Heating Degree Days 20    
Moisture  
Dew Point 29 °F    
Average Humidity 55    
Maximum Humidity 87    
Minimum Humidity 29    
Precipitation  
Precipitation 0.00 in - - ()
Sea Level Pressure  
Sea Level Pressure 30.05 in    
Wind  
Wind Speed 7 mph (NE)    
Max Wind Speed 13 mph    
Max Gust Speed 16 mph    
Visibility 10 miles    
Events      
Averages and records for this station are not official NWS values.
T = Trace of Precipitation, MM = Missing Value Source: NWS Daily Summary

Daily Weather History Graph

Daily Weather History Graph

Search for Another Location

Airport:

Trip Planner

Search our weather history database for the weather conditions in past years. The results will help you decide how hot, cold, wet, or windy it might be!

Date:

Astronomy

May. 04, 2014 Rise Set
Actual Time 6:02 AM CDT 8:27 PM CDT
Civil Twilight 5:29 AM CDT 9:00 PM CDT
Nautical Twilight 4:49 AM CDT 9:41 PM CDT
Astronomical Twilight 4:02 AM CDT 10:28 PM CDT
Moon 10:26 AM CDT (5/4) 12:34 AM CDT (5/4)
Length of Visible Light 15h 30m
Length of Day
14h 24m
Waxing Crescent, 28% of the Moon is Illuminated
May 4
Waxing Crescent
May 6
First Quarter
May 14
Full
May 21
Last Quarter
May 28
New

Hourly Weather History & Observations

Time (CDT) Temp. Windchill Dew Point Humidity Pressure Visibility Wind Dir Wind Speed Gust Speed Precip Events Conditions
12:13 AM 41.0 °F 35.2 °F 32.0 °F 70% 30.01 in 10.0 mi NW 9.2 mph - N/A   Clear
12:32 AM 39.2 °F 34.2 °F 32.0 °F 75% 30.02 in 10.0 mi NW 6.9 mph - N/A   Clear
12:53 AM 39.2 °F 34.2 °F 30.2 °F 70% 30.03 in 10.0 mi NW 6.9 mph - N/A   Clear
1:13 AM 39.2 °F 32.5 °F 30.2 °F 70% 30.04 in 10.0 mi NNW 10.4 mph - N/A   Clear
1:32 AM 39.2 °F 33.6 °F 30.2 °F 70% 30.05 in 10.0 mi NW 8.1 mph - N/A   Clear
1:53 AM 39.2 °F 33.6 °F 30.2 °F 70% 30.06 in 10.0 mi NW 8.1 mph - N/A   Clear
2:12 AM 39.2 °F 35.0 °F 30.2 °F 70% 30.06 in 10.0 mi NW 5.8 mph - N/A   Clear
2:32 AM 37.4 °F 30.3 °F 28.4 °F 70% 30.06 in 10.0 mi NNW 10.4 mph - N/A   Clear
2:53 AM 37.4 °F 30.3 °F 28.4 °F 70% 30.06 in 10.0 mi NNW 10.4 mph - N/A   Clear
3:12 AM 37.4 °F 30.8 °F 28.4 °F 70% 30.07 in 10.0 mi NNW 9.2 mph - N/A   Clear
3:33 AM 37.4 °F 32.1 °F 28.4 °F 70% 30.06 in 10.0 mi NNW 6.9 mph - N/A   Clear
3:53 AM 35.6 °F 29.2 °F 30.2 °F 81% 30.07 in 10.0 mi NNW 8.1 mph - N/A   Clear
4:12 AM 35.6 °F 29.9 °F 30.2 °F 81% 30.07 in 10.0 mi North 6.9 mph - N/A   Clear
4:33 AM 35.6 °F 30.7 °F 28.4 °F 75% 30.07 in 10.0 mi North 5.8 mph - N/A   Clear
4:53 AM 35.6 °F 30.7 °F 30.2 °F 81% 30.06 in 10.0 mi North 5.8 mph - N/A   Clear
5:12 AM 35.6 °F 31.7 °F 30.2 °F 81% 30.06 in 10.0 mi North 4.6 mph - N/A   Clear
5:33 AM 35.6 °F 30.7 °F 30.2 °F 81% 30.07 in 10.0 mi North 5.8 mph - N/A   Clear
5:53 AM 33.8 °F 30.8 °F 30.2 °F 87% 30.08 in 10.0 mi North 3.5 mph - N/A   Clear
6:12 AM 35.6 °F 32.8 °F 30.2 °F 81% 30.09 in 10.0 mi North 3.5 mph - N/A   Clear
6:33 AM 35.6 °F - 30.2 °F 81% 30.10 in 10.0 mi Calm Calm - N/A   Clear
6:52 AM 35.6 °F 32.8 °F 32.0 °F 87% 30.11 in 10.0 mi NNW 3.5 mph - N/A   Clear
7:13 AM 37.4 °F 33.8 °F 32.0 °F 81% 30.12 in 10.0 mi NNW 4.6 mph - N/A   Clear
7:33 AM 37.4 °F 32.8 °F 32.0 °F 81% 30.13 in 10.0 mi NNW 5.8 mph - N/A   Clear
7:52 AM 37.4 °F 32.8 °F 30.2 °F 75% 30.14 in 10.0 mi North 5.8 mph - N/A   Clear
8:13 AM 37.4 °F 32.8 °F 30.2 °F 75% 30.14 in 10.0 mi North 5.8 mph - N/A   Clear
8:33 AM 37.4 °F 34.9 °F 30.2 °F 75% 30.14 in 10.0 mi North 3.5 mph - N/A   Clear
8:52 AM 39.2 °F 35.9 °F 30.2 °F 70% 30.13 in 10.0 mi NNE 4.6 mph - N/A   Clear
9:13 AM 41.0 °F 36.4 °F 30.2 °F 65% 30.13 in 10.0 mi NE 6.9 mph - N/A   Clear
9:33 AM 42.8 °F 38.6 °F 32.0 °F 66% 30.13 in 10.0 mi NE 6.9 mph - N/A   Clear
9:52 AM 44.6 °F 39.2 °F 28.4 °F 53% 30.12 in 10.0 mi NNE 10.4 mph - N/A   Clear
10:13 AM 44.6 °F 40.2 °F 28.4 °F 53% 30.12 in 10.0 mi NE 8.1 mph - N/A   Clear
10:33 AM 44.6 °F 39.7 °F 26.6 °F 49% 30.11 in 10.0 mi NE 9.2 mph - N/A   Clear
10:52 AM 46.4 °F 41.5 °F 26.6 °F 46% 30.11 in 10.0 mi NE 10.4 mph 16.1 mph N/A   Clear
11:13 AM 46.4 °F 41.9 °F 26.6 °F 46% 30.10 in 10.0 mi NE 9.2 mph - N/A   Clear
11:33 AM 46.4 °F 42.4 °F 24.8 °F 43% 30.10 in 10.0 mi NE 8.1 mph - N/A   Clear
11:52 AM 48.2 °F - 26.6 °F 43% 30.10 in 10.0 mi NE 8.1 mph - N/A   Clear
12:13 PM 48.2 °F - 26.6 °F 43% 30.09 in 10.0 mi NE 5.8 mph - N/A   Clear
12:33 PM 51.8 °F - 26.6 °F 38% 30.08 in 10.0 mi East 8.1 mph - N/A   Clear
12:52 PM 50.0 °F - 26.6 °F 40% 30.08 in 10.0 mi NE 4.6 mph - N/A   Clear
1:13 PM 51.8 °F - 26.6 °F 38% 30.07 in 10.0 mi East 10.4 mph - N/A   Clear
1:33 PM 51.8 °F - 24.8 °F 35% 30.07 in 10.0 mi NNE 4.6 mph - N/A   Clear
1:52 PM 53.6 °F - 24.8 °F 33% 30.06 in 10.0 mi NNE 4.6 mph - N/A   Clear
2:13 PM 53.6 °F - 24.8 °F 33% 30.06 in 10.0 mi ENE 3.5 mph - N/A   Clear
2:33 PM 53.6 °F - 24.8 °F 33% 30.05 in 10.0 mi NNE 6.9 mph - N/A   Clear
2:52 PM 53.6 °F - 24.8 °F 33% 30.05 in 10.0 mi East 3.5 mph - N/A   Clear
3:13 PM 53.6 °F - 24.8 °F 33% 30.04 in 10.0 mi SE 3.5 mph 9.2 mph N/A   Scattered Clouds
3:33 PM 55.4 °F - 24.8 °F 31% 30.03 in 10.0 mi ENE 5.8 mph - N/A   Clear
3:53 PM 55.4 °F - 24.8 °F 31% 30.02 in 10.0 mi ESE 5.8 mph - N/A   Clear
4:12 PM 55.4 °F - 24.8 °F 31% 30.02 in 10.0 mi East 6.9 mph - N/A   Clear
4:33 PM 57.2 °F - 24.8 °F 29% 30.01 in 10.0 mi ESE 8.1 mph - N/A   Clear
4:53 PM 55.4 °F - 24.8 °F 31% 30.00 in 10.0 mi SE 9.2 mph - N/A   Clear
5:12 PM 55.4 °F - 26.6 °F 33% 30.01 in 10.0 mi SE 10.4 mph - N/A   Clear
5:33 PM 55.4 °F - 24.8 °F 31% 29.99 in 10.0 mi SE 9.2 mph - N/A   Clear
5:53 PM 55.4 °F - 24.8 °F 31% 29.99 in 10.0 mi ESE 12.7 mph - N/A   Clear
6:12 PM 55.4 °F - 26.6 °F 33% 29.99 in 10.0 mi ESE 9.2 mph - N/A   Clear
6:33 PM 55.4 °F - 26.6 °F 33% 29.99 in 10.0 mi ESE 8.1 mph - N/A   Clear
6:53 PM 55.4 °F - 26.6 °F 33% 29.99 in 10.0 mi East 9.2 mph - N/A   Clear
7:12 PM 55.4 °F - 26.6 °F 33% 29.99 in 10.0 mi East 6.9 mph - N/A   Clear
7:33 PM 53.6 °F - 28.4 °F 38% 29.98 in 10.0 mi East 5.8 mph - N/A   Clear
7:53 PM 53.6 °F - 28.4 °F 38% 29.98 in 10.0 mi East 3.5 mph - N/A   Scattered Clouds
8:12 PM 53.6 °F - 30.2 °F 41% 29.99 in 10.0 mi East 4.6 mph - N/A   Mostly Cloudy
8:33 PM 53.6 °F - 32.0 °F 44% 29.98 in 10.0 mi East 4.6 mph - N/A   Overcast
9:12 PM 51.8 °F - 35.6 °F 54% 29.98 in 10.0 mi East 3.5 mph - N/A   Overcast
9:33 PM 51.8 °F - 32.0 °F 47% 30.00 in 10.0 mi Calm Calm - N/A   Unknown
9:53 PM 51.8 °F - 33.8 °F 50% 30.01 in 10.0 mi Calm Calm - N/A   Unknown
10:12 PM 51.8 °F - 37.4 °F 58% 30.01 in 10.0 mi Calm Calm - N/A   Overcast
10:33 PM 51.8 °F - 33.8 °F 50% 30.02 in 10.0 mi North 3.5 mph - N/A   Unknown
10:53 PM 51.8 °F - 33.8 °F 50% 30.00 in 10.0 mi Calm Calm - N/A   Overcast
11:12 PM 51.8 °F - 35.6 °F 54% 30.01 in 10.0 mi NNE 3.5 mph - N/A   Overcast
11:33 PM 51.8 °F - 33.8 °F 50% 29.98 in 10.0 mi ENE 4.6 mph - N/A   Overcast
11:53 PM 51.8 °F - 35.6 °F 54% 29.98 in 10.0 mi NE 5.8 mph - N/A   Overcast